RH
82 77 76 79 81 82 83 86 85 78 80 84 81 87 87 87 89 88 89 89 90 86 88 93 91 96 97 96 91 86 93 94 90 88 84 79 77 84 85 82 80 76 79 80 77 73 65 57 54 55 52 48 44 43 41 43 41 34 31 29 26 26 25 23 22 22 22 23 23 24 25 25 24 23 23 23 24 24 24 22 21 20 17 14 12 12 13 15 17 21 27 32 36 39 40 41 44
80 75 77 85 84 82 83 80 81 80 84 86 80 86 87 86 89 84 81 83 83 81 84 88 89 92 94 95 91 89 91 87 83 80 76 75 73 74 79 77 74 73 75 77 75 68 57 47 48 51 47 44 43 42 40 38 35 31 30 28 27 27 27 26 24 25 25 25 26 27 27 26 26 25 26 26 27 27 26 26 24 23 21 17 13 12 13 15 16 18 23 29 34 39 43 43 45
76 70 72 81 83 82 80 75 78 77 79 84 79 84 88 86 84 76 70 72 75 78 83 85 89 89 89 93 91 89 84 80 77 74 73 69 66 69 72 69 69 70 69 69 63 56 48 43 44 45 42 42 41 41 40 36 34 32 29 26 26 28 27 28 28 28 29 30 30 29 29 28 27 27 28 30 30 31 31 30 29 28 26 21 17 13 12 14 15 16 19 26 33 39 44 46 46
67 66 68 73 78 78 78 79 79 75 81 88 83 84 87 87 82 71 64 67 74 81 86 82 87 90 91 93 89 85 79 77 73 70 70 63 59 65 68 65 66 67 65 60 49 44 41 38 38 41 42 41 40 39 40 37 34 33 29 25 25 27 29 30 31 32 33 33 32 30 29 28 27 28 30 32 32 33 34 34 34 34 31 27 22 18 15 15 16 17 18 22 29 37 43 47 48
66 76 77 75 78 77 76 74 80 86 92 90 85 88 83 79 76 72 67 65 69 74 78 78 82 85 88 91 87 84 78 74 69 64 64 58 54 58 60 59 61 59 56 51 41 38 36 34 35 37 39 39 39 38 39 36 34 33 29 26 25 26 28 29 31 33 33 33 32 30 29 27 27 27 30 31 32 33 35 36 37 38 37 34 31 26 22 18 17 19 22 23 26 32 39 45 47
69 77 74 67 72 74 72 69 83 86 84 87 84 86 77 73 74 72 71 64 66 70 71 72 75 73 76 79 75 75 72 68 63 58 58 54 50 51 52 51 52 49 45 39 34 34 32 32 32 32 34 36 37 35 36 34 32 32 28 26 24 23 25 26 28 30 31 31 29 28 27 27 27 29 31 32 33 34 35 36 37 39 38 38 37 35 32 28 23 20 22 25 27 30 34 39 44
70 73 69 63 65 66 70 77 85 65 60 74 74 78 72 69 69 66 68 65 64 65 65 64 64 66 69 66 61 61 58 56 56 53 52 49 46 45 45 47 46 43 38 32 29 28 28 28 27 27 29 32 30 29 32 30 28 26 23 20 20 21 22 22 24 25 27 27 27 28 28 29 30 32 34 35 35 36 37 37 37 38 39 39 39 38 38 37 35 30 26 24 26 28 30 34 40
73 76 76 73 74 68 73 86 69 35 39 52 55 67 63 59 63 63 63 63 61 56 60 60 58 62 60 58 54 51 48 45 47 46 45 44 43 40 40 43 43 40 35 28 25 24 25 24 22 23 25 29 27 25 27 24 21 18 16 16 17 18 19 19 20 23 24 25 27 29 31 33 35 37 39 39 39 38 38 38 39 43 45 45 44 42 40 40 40 40 38 34 30 27 27 29 35
72 76 81 80 80 75 81 96 69 30 33 34 36 44 41 49 60 63 58 55 59 54 52 50 53 60 55 51 48 43 43 40 38 39 38 40 39 37 39 39 39 37 32 25 23 21 21 20 18 19 21 26 24 21 21 17 15 14 14 14 14 16 18 20 21 23 25 27 30 33 37 39 41 42 44 45 44 42 41 41 44 48 50 51 50 50 48 47 45 42 41 41 39 35 31 27 28
74 74 84 78 73 81 86 96 73 34 30 30 29 28 27 38 49 56 54 49 54 51 39 37 48 54 52 48 44 40 40 33 29 33 31 34 35 36 38 34 33 31 27 23 20 19 19 19 17 16 18 21 19 16 15 13 13 13 14 14 16 19 20 21 23 25 27 30 33 37 40 42 44 46 49 51 50 47 47 47 47 49 49 50 50 50 51 51 50 48 45 43 42 42 40 36 32
78 70 81 76 72 93 92 93 81 44 28 29 29 27 28 30 36 43 46 47 50 52 34 30 40 38 47 50 45 42 36 29 23 26 26 26 28 29 30 27 27 25 23 21 18 18 18 18 17 15 17 17 15 13 12 12 13 14 16 18 19 20 18 20 25 27 29 33 36 40 42 44 47 50 53 54 54 53 53 53 50 49 50 51 49 47 50 50 48 48 48 47 46 46 46 45 43
73 66 77 78 80 95 93 95 91 67 41 28 27 26 27 27 33 33 35 40 44 51 34 32 42 32 42 47 44 43 35 32 24 21 22 20 20 21 22 22 23 21 21 20 18 19 18 17 17 18 17 15 12 10 12 14 16 17 19 19 19 18 16 18 22 26 30 34 38 41 44 45 47 48 49 51 52 54 55 55 53 53 54 53 50 48 50 48 45 44 45 46 45 45 46 46 46
69 70 81 81 82 84 89 93 80 79 61 31 29 24 22 29 38 36 30 35 43 52 39 41 51 34 38 42 39 41 38 40 31 22 20 18 17 17 17 17 19 19 18 19 18 18 17 17 17 18 15 12 11 12 15 16 17 18 18 19 19 19 18 18 21 24 27 29 32 33 34 34 35 36 37 39 41 45 49 52 54 56 56 53 50 47 44 40 39 40 42 44 42 40 40 40 40
69 76 83 76 80 81 86 94 82 88 72 34 31 26 22 28 34 36 31 36 47 54 48 50 58 45 39 35 33 36 36 39 33 25 22 19 16 14 17 17 16 17 18 17 16 17 17 17 17 16 14 12 13 15 17 18 19 19 19 19 20 21 20 21 22 24 26 27 27 27 27 27 28 29 30 31 32 35 38 41 44 45 45 43 40 38 37 38 39 40 41 43 43 41 39 38 36
72 72 79 74 78 84 83 91 92 93 71 37 33 27 24 22 20 34 40 40 42 49 52 52 60 59 46 25 25 37 33 32 33 26 20 18 15 13 18 20 15 14 16 15 15 17 17 19 18 16 14 13 15 19 21 21 22 22 23 23 24 25 25 26 26 26 26 26 26 25 26 26 27 27 28 30 32 34 35 36 37 38 38 39 40 41 44 46 47 47 44 41 41 41 40 38 35
76 71 78 82 78 85 83 80 84 86 73 46 33 27 25 20 15 35 47 36 35 48 55 54 60 66 60 36 25 33 30 27 30 22 13 13 17 17 14 14 14 14 15 15 16 18 20 20 18 16 15 16 19 21 22 23 23 23 24 27 30 31 31 29 26 23 20 19 18 16 17 17 17 17 17 18 19 21 24 25 26 27 28 30 34 38 42 45 48 49 47 45 43 42 41 40 38
73 83 84 84 85 90 88 84 79 75 69 46 31 25 23 21 14 25 35 26 26 36 41 48 57 60 66 58 34 22 19 20 20 13 8 10 16 18 12 11 14 15 15 15 17 20 22 20 17 16 18 20 22 22 22 22 22 22 23 26 30 32 29 23 18 14 10 9 8 10 12 12 10 8 10 9 7 7 7 7 8 8 9 10 12 14 17 22 31 36 38 40 39 41 42 45 45
62 90 89 84 91 84 82 91 78 64 64 47 30 24 21 19 14 14 17 18 17 19 25 38 50 52 61 67 40 13 10 12 10 8 8 8 12 16 14 13 16 16 16 16 19 22 21 19 17 16 20 22 22 21 20 21 21 21 21 22 24 25 21 15 11 8 5 5 8 13 16 15 11 9 13 13 9 9 9 8 6 4 6 7 7 8 9 7 11 15 18 21 24 27 31 35 39
57 83 90 89 90 77 78 90 73 56 61 52 33 25 23 18 14 11 8 14 14 13 20 28 42 44 49 61 38 10 7 8 8 9 9 8 10 17 18 16 16 15 15 17 19 22 20 17 16 18 23 21 20 20 19 20 20 19 18 17 17 17 15 10 8 7 5 5 10 15 15 14 12 10 15 18 19 21 23 23 18 12 12 16 16 14 15 11 9 10 11 12 13 14 14 17 21
67 77 87 89 79 75 74 75 70 54 49 49 36 27 27 20 12 10 8 10 11 12 14 16 30 32 34 49 32 9 7 9 11 10 10 10 11 15 17 16 14 15 17 18 18 20 20 16 15 19 23 20 19 20 19 18 15 14 14 13 13 12 12 9 7 11 10 8 13 16 14 13 11 9 12 14 19 24 29 30 26 22 20 20 19 14 13 14 12 10 11 10 9 7 6 6 7
88 80 88 91 76 78 71 67 77 59 42 44 43 33 28 26 15 10 10 7 8 13 12 12 24 26 31 36 19 8 8 10 13 12 11 11 12 12 11 13 12 15 21 18 16 18 17 15 15 17 21 21 21 19 17 17 14 10 11 12 11 11 12 9 9 15 14 12 14 13 11 10 9 9 9 10 13 19 27 27 23 23 20 16 13 11 12 13 11 8 7 7 7 6 6 5 5
89 85 87 91 82 82 77 76 73 52 44 43 41 39 31 31 22 11 10 10 15 17 13 14 21 25 29 26 13 9 7 9 14 13 14 12 11 10 7 10 11 16 21 16 15 16 15 14 14 16 19 20 20 19 14 16 17 12 11 13 13 13 11 11 13 17 15 10 9 8 7 8 9 11 10 11 14 17 21 21 20 22 18 14 14 14 12 12 12 9 6 6 7 6 6 6 6
77 85 80 83 83 83 84 82 65 46 57 53 40 41 38 35 26 16 10 14 27 23 13 13 25 33 27 21 19 16 8 7 13 11 14 14 11 9 6 8 11 17 18 13 13 14 14 13 13 15 16 16 16 16 12 14 18 15 13 12 14 13 10 14 15 11 10 7 6 7 7 8 12 14 13 13 15 18 20 20 22 23 20 19 19 15 10 8 10 9 6 6 7 6 7 7 7
76 78 76 81 78 77 80 80 65 46 58 61 44 38 40 34 26 22 14 19 29 21 12 9 24 41 31 23 23 23 14 6 12 15 15 14 10 8 6 8 11 14 13 10 12 14 15 12 12 14 14 13 13 12 10 11 13 14 14 13 15 13 12 18 13 6 7 7 7 7 7 11 16 20 20 18 17 20 23 21 21 21 21 21 17 14 11 9 8 7 7 7 7 7 7 7 8
70 63 70 82 78 75 71 70 66 53 57 59 47 38 37 33 26 21 17 25 28 19 16 8 19 38 33 27 27 30 26 15 17 17 15 15 11 8 8 11 10 9 9 9 10 12 14 12 13 13 12 12 11 9 8 7 8 9 10 12 15 14 14 14 8 6 7 6 7 8 8 12 18 24 23 19 18 23 24 20 20 21 19 18 15 13 13 11 9 9 8 7 8 8 8 8 9
67 61 64 73 79 80 71 65 65 67 70 57 43 40 33 31 29 19 19 27 22 17 18 10 16 32 33 30 33 38 34 33 33 21 17 16 10 9 11 12 9 7 8 9 10 10 11 12 12 12 11 12 9 8 7 6 6 6 7 7 9 10 11 10 7 7 7 7 9 8 10 12 16 23 22 17 16 23 24 19 20 21 19 20 18 15 12 12 13 15 14 11 11 10 10 10 10
71 66 61 66 77 82 80 76 71 74 77 62 44 41 35 29 25 17 19 22 15 17 20 15 14 23 35 36 38 38 30 44 50 35 33 22 7 9 12 11 7 6 8 9 10 9 10 11 10 11 11 10 8 6 6 6 6 5 6 6 6 6 7 7 7 6 6 8 11 8 9 12 14 18 20 16 14 19 21 17 17 20 22 22 20 16 12 12 14 17 16 12 12 11 11 11 11
74 65 60 68 73 75 79 75 75 73 72 68 48 43 45 31 22 20 21 18 12 17 22 21 14 14 29 38 38 30 27 48 52 42 42 27 9 8 9 9 6 7 8 8 9 8 12 12 10 10 10 8 6 6 6 5 5 5 6 6 6 6 6 6 6 6 6 7 10 9 8 9 10 16 19 15 12 16 18 19 19 21 22 19 22 21 13 12 13 13 10 8 9 9 10 11 11
58 55 59 74 70 66 67 62 69 74 78 73 44 39 47 31 23 27 25 18 14 19 20 19 17 13 21 34 33 18 18 35 38 41 44 26 11 9 7 7 6 8 9 8 9 9 11 11 10 10 8 7 6 6 6 5 5 5 5 6 6 6 6 7 6 6 7 6 8 10 9 8 9 14 19 15 11 12 16 21 21 20 18 16 19 18 13 12 11 10 8 7 7 7 8 10 10
46 48 51 64 71 71 73 72 71 74 84 70 35 35 47 36 29 30 26 17 15 21 19 17 20 16 17 28 23 6 7 16 25 41 41 20 9 8 7 6 5 7 9 8 8 9 10 10 10 9 7 7 6 6 6 5 6 5 5 5 5 6 6 6 7 6 7 7 7 8 8 10 11 13 15 13 10 10 14 19 20 18 13 10 11 11 12 14 10 8 7 7 7 7 7 7 8
43 51 49 44 57 73 79 82 74 69 75 54 26 33 48 48 37 28 24 16 13 19 18 16 21 20 17 23 16 2 3 6 15 28 23 11 7 6 5 5 6 6 7 7 7 8 8 9 9 9 8 7 7 7 6 5 5 5 5 5 5 5 5 5 6 6 6 7 7 7 8 11 12 13 13 10 9 10 9 12 18 21 17 10 8 10 12 11 9 8 8 8 8 7 7 7 7
42 51 57 45 48 69 78 81 75 71 70 46 24 30 50 62 55 39 28 19 13 14 19 17 16 20 19 21 16 4 2 2 5 10 10 8 5 4 5 4 5 5 6 6 6 7 6 7 8 8 8 7 7 7 6 6 5 5 5 5 5 5 5 5 5 6 6 6 7 6 10 14 13 13 13 9 8 8 7 8 12 17 21 18 13 13 12 8 8 8 8 8 8 8 8 7 7
48 47 56 60 58 65 75 83 78 64 55 42 25 29 57 75 68 55 36 23 16 11 18 17 13 17 16 20 22 10 2 2 2 5 9 9 4 3 4 4 4 4 5 5 5 6 5 6 6 6 7 6 7 6 6 6 5 6 6 5 5 5 5 5 5 6 6 6 6 6 9 16 17 14 12 8 7 8 7 8 8 9 14 14 12 12 10 7 8 8 8 8 8 8 8 8 8
49 44 44 61 68 64 70 84 87 65 43 38 29 27 57 78 72 64 47 28 20 16 17 16 14 16 15 18 23 17 5 2 4 4 6 5 3 3 2 2 4 3 4 4 4 5 4 5 5 5 6 5 6 6 6 6 6 6 6 5 5 5 5 5 5 6 6 6 7 6 7 12 16 14 10 8 8 8 8 7 9 13 12 9 9 11 8 7 8 8 8 8 8 8 8 8 7
43 49 45 60 70 62 64 77 88 78 53 44 36 23 41 77 86 72 56 37 22 20 18 17 16 15 19 20 21 18 7 3 4 2 3 3 2 2 2 3 3 3 4 4 4 4 4 4 4 4 4 5 5 5 5 5 5 5 5 5 5 5 5 5 6 6 6 6 6 7 7 8 9 8 8 8 8 8 10 10 12 16 16 13 13 13 12 11 10 10 10 9 8 8 7 8 8
45 59 59 64 68 63 67 78 82 78 67 56 48 36 31 66 95 74 60 53 31 23 23 22 20 14 18 22 21 20 9 3 4 2 2 2 2 2 2 3 2 3 3 3 4 4 4 4 4 5 4 5 4 5 5 5 5 5 5 5 5 5 5 6 6 6 6 6 7 6 7 8 7 7 10 9 9 10 12 15 16 17 18 18 19 20 20 19 18 16 15 12 11 9 7 7 7
48 63 66 63 66 66 69 79 81 72 70 63 55 56 43 54 78 63 64 72 44 27 28 27 26 19 18 19 21 23 13 4 3 3 4 2 3 3 2 3 2 3 3 3 3 3 3 3 3 4 4 4 5 4 5 4 5 5 5 5 5 5 5 6 6 6 7 6 7 7 7 9 8 9 11 10 10 12 13 14 15 16 17 18 19 21 22 23 22 21 19 16 14 11 8 7 6
44 59 64 60 63 69 67 71 78 69 66 68 59 61 56 52 52 38 58 83 57 32 29 31 34 28 23 20 18 22 18 11 8 5 4 3 4 3 3 3 2 3 3 2 3 2 3 3 3 3 3 4 4 4 4 4 5 5 5 5 5 5 5 6 6 6 7 7 7 8 8 9 9 10 11 11 10 11 12 13 14 15 17 18 19 20 22 22 22 20 18 16 15 13 10 7 6
39 51 59 61 63 70 69 68 77 72 64 67 62 58 57 54 47 35 53 79 67 45 33 32 38 37 34 25 17 20 20 17 14 7 3 3 4 3 3 3 3 3 3 2 3 3 3 3 3 3 3 4 3 4 4 4 4 4 5 5 5 5 5 6 6 7 7 7 8 8 9 9 10 11 10 10 11 11 12 13 14 17 20 21 20 20 20 19 17 14 14 14 14 13 10 7 6
36 45 55 61 61 66 68 67 73 75 69 68 70 66 57 56 59 54 55 62 63 57 43 32 34 42 45 34 22 20 19 19 18 13 7 4 3 4 4 3 4 3 3 3 2 3 3 2 3 2 3 3 3 4 3 4 4 4 5 5 5 5 6 6 6 7 7 8 8 8 9 9 11 14 13 11 12 13 14 14 16 20 23 23 20 16 13 11 11 10 10 11 12 11 9 7 6
32 38 52 61 60 61 66 69 68 72 73 69 74 75 59 54 61 61 58 54 53 52 44 33 31 38 40 34 29 21 20 27 26 19 14 7 4 5 5 4 4 4 4 4 3 3 3 3 3 2 3 3 3 3 3 4 4 4 5 5 5 6 6 7 7 7 7 8 8 8 10 10 13 19 19 15 14 14 13 12 14 17 19 17 12 9 7 7 8 9 9 9 9 8 8 7 6
25 26 42 57 61 59 63 71 69 72 74 65 68 72 60 51 52 58 62 59 53 48 43 36 32 37 35 30 33 29 26 30 23 17 14 8 5 5 5 5 4 5 5 4 5 4 3 3 3 3 3 3 3 3 3 4 4 5 5 5 6 6 7 7 7 8 8 8 9 9 11 11 13 15 15 14 13 11 10 9 10 12 12 10 8 7 7 7 7 8 8 8 8 8 7 7 6
20 23 30 43 56 61 62 67 66 67 70 65 66 71 69 61 52 54 58 55 53 48 45 41 32 34 34 26 28 29 28 26 18 13 11 8 7 6 6 6 5 5 5 5 5 4 4 5 4 4 4 3 3 3 4 4 4 5 5 6 6 7 7 8 8 8 9 9 10 10 12 14 12 11 11 11 10 8 9 10 11 11 12 12 13 14 16 17 17 14 10 8 7 8 7 8 8
11 23 34 37 46 58 60 62 62 63 67 69 71 75 79 74 60 54 53 51 54 49 44 43 35 32 32 27 24 23 24 24 19 13 10 13 18 19 16 14 13 11 9 9 8 7 5 4 5 5 4 4 4 4 4 4 5 6 6 6 7 7 8 8 8 9 9 10 11 13 15 14 11 9 9 8 8 10 12 13 14 16 17 20 22 27 33 38 39 35 29 22 15 11 10 9 9
3 18 41 47 46 52 56 56 57 60 65 66 70 76 81 79 69 64 60 54 55 55 48 43 40 36 32 27 26 28 29 24 22 18 12 14 25 33 35 31 27 23 20 21 20 17 12 8 6 5 5 5 5 5 5 5 6 6 6 7 7 7 8 9 10 10 12 12 13 16 17 12 9 9 9 10 12 14 16 18 23 27 29 31 33 36 40 42 42 43 43 44 41 36 32 29 27
3 10 34 50 50 49 53 56 54 55 59 62 66 73 78 78 73 69 64 55 49 49 46 42 40 37 35 34 32 33 33 26 24 26 19 15 20 31 39 40 39 35 32 31 30 30 29 23 15 9 7 6 5 5 6 6 6 6 7 7 7 9 10 12 14 16 19 19 18 19 17 11 10 12 14 16 17 17 21 26 29 30 30 30 31 31 32 33 36 42 48 53 57 58 57 57 56
4 10 26 44 50 49 48 53 55 54 59 62 62 65 71 75 74 67 56 48 44 43 43 43 40 38 41 43 36 33 34 30 31 34 32 28 25 28 35 39 41 40 38 38 38 39 41 40 34 24 16 12 10 8 7 7 6 6 7 8 8 10 11 14 19 24 27 25 23 22 17 13 15 19 20 19 19 21 26 28 27 26 25 25 26 27 31 37 43 52 58 61 62 64 66 69 69
5 14 27 38 47 51 49 49 52 55 59 64 60 60 69 73 75 74 60 44 41 44 47 48 45 42 45 44 39 37 35 32 34 41 44 42 38 37 36 34 35 37 39 41 43 43 45 48 48 41 31 25 23 22 21 18 13 10 9 8 9 10 14 21 27 31 33 30 28 25 17 16 21 24 23 21 22 25 26 27 26 26 26 26 27 30 39 52 59 62 63 64 67 70 73 75 77
3 11 26 37 46 52 52 51 54 56 57 61 59 57 65 69 68 76 72 55 50 52 54 60 57 48 47 46 44 45 41 36 37 42 46 46 44 40 31 26 30 36 39 42 44 44 45 48 50 49 44 38 36 37 37 35 30 25 19 15 14 17 23 30 34 35 35 33 32 26 18 20 26 28 26 25 25 27 27 27 27 26 27 29 33 39 48 57 64 65 60 57 62 72 78 81 83
2 5 14 24 37 47 53 54 55 56 55 59 62 58 60 63 61 67 69 66 70 67 62 66 63 53 52 55 55 51 46 43 42 42 42 43 42 34 25 23 29 37 40 41 42 41 41 42 44 46 47 45 46 48 46 44 43 40 34 28 26 29 34 36 37 35 33 32 31 26 21 23 29 30 28 27 28 29 29 28 27 27 30 36 41 46 51 58 65 67 62 55 59 72 82 83 85
4 3 6 11 20 31 44 51 50 51 53 57 64 62 58 59 58 61 65 70 79 78 72 71 69 65 62 61 60 55 52 53 51 46 41 42 42 33 23 23 27 34 37 35 34 34 34 34 35 38 41 44 47 51 52 51 51 50 46 39 35 37 39 39 38 33 27 28 30 26 22 25 30 31 29 29 30 31 29 28 29 29 31 36 39 45 54 61 62 59 57 57 61 67 74 78 79
7 6 7 10 14 16 27 43 46 48 53 57 60 58 55 57 56 58 65 71 77 80 81 81 80 76 65 57 55 54 59 68 63 53 47 47 45 34 25 24 26 30 32 31 31 30 29 27 27 28 30 34 38 45 51 53 55 56 53 47 42 41 42 41 39 33 25 26 30 27 25 28 32 31 29 31 33 33 33 33 33 33 34 34 36 44 54 55 49 45 48 55 58 57 61 71 76
12 14 8 6 9 7 13 32 42 47 54 56 55 54 55 60 58 58 67 74 79 83 86 87 86 77 64 62 63 57 58 65 63 58 53 47 40 32 29 30 30 33 36 37 37 33 30 27 24 24 24 26 31 36 42 47 51 54 54 51 47 45 46 46 43 36 27 27 31 29 28 32 32 30 31 34 36 37 36 36 36 38 40 39 42 50 53 49 44 43 48 54 57 54 54 65 78
13 17 10 5 8 10 16 31 42 49 57 57 54 54 55 59 56 54 61 68 75 83 88 90 88 74 62 66 71 65 59 57 56 53 45 37 34 31 32 33 35 41 43 44 45 40 33 30 27 25 23 24 26 29 31 35 39 43 46 47 48 50 52 50 45 37 28 27 30 31 31 33 31 31 34 36 36 37 37 37 37 39 44 47 50 55 54 49 46 46 48 52 55 53 49 54 68
6 11 15 15 17 17 20 35 46 52 59 56 53 57 59 57 54 52 55 58 65 76 79 83 89 81 68 67 72 69 59 51 53 52 38 30 30 29 30 36 42 48 48 48 51 46 38 33 29 26 25 24 23 22 22 24 26 29 33 36 40 45 46 42 38 31 25 26 30 33 33 32 31 34 37 37 38 38 39 38 35 37 45 50 52 55 54 51 50 48 47 51 54 51 46 47 52
2 6 16 23 26 24 20 33 49 55 58 54 49 54 58 56 53 51 53 54 58 64 63 68 85 88 74 67 71 71 57 45 52 57 45 34 33 30 31 40 48 50 51 53 52 49 44 36 29 27 28 27 24 22 20 19 19 18 18 20 22 25 25 24 23 21 22 27 33 33 31 31 35 39 40 40 41 39 38 37 34 35 43 49 50 53 53 53 53 50 48 53 56 51 48 49 47
3 2 10 20 29 30 23 31 46 52 54 52 50 52 52 54 55 52 51 53 55 58 57 59 72 82 78 70 71 74 64 52 55 60 52 44 41 34 29 36 47 50 52 52 49 50 50 43 33 28 27 29 29 27 26 24 21 16 13 11 11 12 12 13 15 19 25 31 32 30 30 35 40 43 44 42 41 37 34 32 30 31 40 47 48 45 46 49 50 48 48 56 60 54 52 58 57
7 3 2 12 25 32 30 30 40 50 52 47 47 50 48 49 53 53 52 53 56 57 58 62 65 68 70 65 66 73 70 61 61 60 54 47 43 39 32 30 39 47 52 52 49 51 53 52 43 31 26 30 33 31 28 27 23 18 15 13 12 12 13 16 20 25 29 29 29 29 32 38 42 44 45 42 38 35 31 29 27 25 30 36 34 30 33 42 45 43 46 58 66 60 56 58 56
Wind_Speed
12 13 14 13 13 12 12 10 11 11 9 11 10 9 7 7 7 6 7 6 5 5 5 4 3 5 5 4 6 7 7 8 11 13 12 11 11 12 13 12 12 12 12 12 12 14 14 15 14 14 15 14 14 15 15 14 14 14 13 13 13 11 10 10 9 8 8 8 9 9 9 9 9 9 9 8 7 8 9 10 11 11 11 10 9 7 7 7 7 7 6 6 7 8 8 8 8
12 13 15 14 12 12 11 9 11 9 10 11 8 8 6 5 7 6 7 6 6 6 7 6 5 6 6 6 8 8 9 12 12 13 12 11 11 10 12 12 12 12 11 12 13 14 13 13 14 14 13 13 14 14 13 13 13 13 13 13 12 11 10 9 8 8 8 8 8 9 9 9 9 9 8 7 8 8 9 10 10 11 11 10 9 7 6 6 6 6 5 5 5 7 8 7 7
12 12 13 14 11 10 11 9 11 8 8 10 6 6 5 4 7 6 6 6 6 6 7 7 5 5 7 8 9 10 10 11 11 12 12 11 11 10 11 11 11 11 12 13 13 12 12 12 13 12 12 13 13 13 12 12 12 12 12 12 11 10 9 8 8 7 7 8 8 8 8 8 8 8 7 7 8 9 9 10 10 10 10 10 9 8 7 6 6 5 4 4 4 6 7 6 5
11 9 9 12 13 11 11 10 12 11 9 8 6 5 4 4 5 4 5 6 6 6 7 7 7 6 7 8 9 10 9 9 10 11 11 9 11 11 10 11 11 12 12 12 12 12 12 12 12 12 11 11 12 12 12 12 12 11 11 11 10 10 9 8 7 7 7 7 7 7 8 8 8 7 7 7 8 8 9 9 9 9 9 9 9 9 8 7 5 5 4 3 3 4 5 5 4
13 12 10 11 16 15 11 9 12 12 8 5 5 3 3 5 4 3 4 4 6 6 7 8 7 6 7 7 8 9 9 10 9 10 10 9 10 11 10 10 11 11 12 12 11 12 12 11 11 11 11 10 11 11 11 10 10 10 9 9 9 9 8 8 8 7 7 7 7 7 8 7 7 6 6 7 7 8 8 8 8 8 8 8 9 9 9 8 6 5 4 3 3 3 3 3 3
14 12 11 9 11 14 13 12 11 7 4 4 3 2 3 4 2 2 2 2 4 4 6 6 6 5 6 7 7 8 8 9 9 10 11 8 10 11 10 10 10 10 11 11 11 11 11 11 11 11 10 10 10 10 10 9 9 9 9 9 9 9 9 8 8 8 7 7 7 7 7 7 7 6 7 7 7 7 8 7 7 7 7 8 8 8 8 8 7 6 5 4 3 2 1 1 2
14 13 11 9 11 13 15 14 8 1 3 5 3 2 3 2 0 1 1 1 1 2 5 5 4 5 5 5 6 6 7 8 8 9 10 9 9 10 10 10 10 10 10 10 10 11 11 11 11 11 10 10 9 9 9 9 9 9 9 8 9 9 9 9 8 8 7 7 7 7 6 6 6 6 7 7 7 7 7 7 7 7 7 7 7 7 7 6 6 6 5 4 3 2 0 1 1
11 11 8 9 12 14 18 13 3 0 3 4 3 2 2 0 2 1 2 2 1 1 3 4 4 4 3 3 4 5 7 7 7 8 8 9 9 9 9 9 9 9 9 9 10 10 11 11 10 10 10 9 9 9 9 9 9 9 9 9 10 10 9 9 9 8 7 7 6 6 6 6 6 6 6 6 7 7 7 6 7 7 7 7 7 6 6 5 5 4 4 4 3 2 1 1 2
6 6 7 9 10 15 19 9 1 2 3 3 3 2 1 1 2 1 1 3 2 1 1 2 3 3 1 3 3 3 5 6 7 7 7 8 8 8 8 8 8 8 8 9 10 10 10 10 9 10 10 10 9 9 9 9 9 9 10 10 10 10 10 9 9 8 8 7 7 6 6 6 6 6 6 6 6 6 6 6 7 7 8 8 8 7 6 5 4 3 2 2 2 2 2 1 2
8 7 6 7 13 18 13 1 3 1 2 3 3 2 2 2 3 2 2 3 2 1 1 1 2 2 2 3 3 2 4 5 7 6 6 7 7 7 7 6 7 8 8 9 9 9 10 9 9 10 10 9 8 8 9 9 10 10 10 10 11 11 10 10 10 9 8 8 7 7 6 6 6 5 5 5 5 5 5 6 6 6 6 7 7 6 6 5 4 2 1 1 2 2 2 2 2
10 9 7 7 14 15 6 2 2 1 2 2 3 3 2 2 3 3 3 3 3 2 2 2 2 2 2 2 2 2 3 4 6 6 6 6 6 6 6 6 6 7 8 8 8 8 9 9 9 9 9 8 8 8 9 10 10 10 10 10 11 11 11 11 10 10 9 9 8 7 7 6 6 6 6 5 5 5 5 5 5 5 5 4 4 4 4 4 3 1 1 1 1 1 2 2 2
8 7 6 10 15 11 3 2 2 1 3 3 3 4 3 3 4 4 4 4 4 3 3 3 2 2 2 2 2 2 3 5 5 6 6 5 5 5 5 5 6 6 7 7 7 8 8 8 8 7 8 8 9 9 10 10 10 11 11 11 11 11 11 11 11 10 10 9 9 8 8 7 7 6 6 6 5 5 5 5 4 4 4 3 3 3 4 5 4 2 2 2 1 1 2 2 3
7 6 5 9 13 7 2 1 3 1 3 4 5 6 4 4 4 4 5 5 4 4 4 4 3 3 2 2 3 3 4 5 5 5 5 5 4 4 3 4 5 5 6 6 7 8 8 8 7 7 8 9 10 11 11 11 12 13 12 12 12 12 12 11 11 11 11 10 9 9 8 8 7 7 7 6 6 5 5 5 4 4 3 3 3 4 5 6 5 4 3 3 2 2 3 3 3
5 4 5 7 10 7 4 2 2 4 5 5 5 6 5 5 5 5 6 5 5 5 5 5 4 3 3 3 4 5 6 6 5 4 4 4 4 3 3 3 4 5 5 6 7 7 7 7 7 8 9 10 11 12 12 12 13 14 13 13 13 12 12 12 12 11 11 11 10 10 9 9 9 8 8 7 6 6 5 4 4 3 3 4 5 5 5 5 5 4 3 3 3 3 4 4 4
4 6 8 5 8 8 4 3 1 5 6 6 6 6 6 6 4 4 5 5 6 7 6 5 4 4 5 4 4 5 6 6 6 4 4 4 4 4 4 4 4 5 5 5 6 7 7 8 8 9 10 11 12 12 12 13 13 14 13 13 13 13 13 13 12 12 12 12 11 11 11 11 11 10 10 9 8 7 6 5 4 4 4 4 4 5 5 4 4 3 3 3 3 3 3 4 4
4 7 8 6 7 8 2 1 3 6 6 6 6 6 7 7 4 3 5 6 7 7 7 6 5 6 6 5 5 5 5 6 6 5 5 5 6 5 5 5 5 6 6 6 6 7 8 9 10 11 11 12 12 12 12 13 14 14 14 14 13 13 13 14 14 14 13 13 13 13 13 13 13 12 12 11 10 9 8 7 6 6 5 5 4 4 4 4 4 4 4 4 4 4 3 3 3
4 2 6 9 7 7 5 3 5 5 6 6 6 6 7 7 5 4 5 6 6 7 7 7 7 6 6 7 6 5 5 6 6 6 6 7 7 7 6 5 6 7 7 7 7 8 9 11 12 12 12 12 12 12 12 13 14 14 14 13 13 14 14 14 14 14 14 14 13 13 13 13 13 13 13 13 12 12 11 10 9 9 8 8 8 7 7 6 6 6 6 6 6 5 5 4 4
2 3 6 9 5 5 7 2 6 5 6 5 5 6 6 7 5 4 4 4 4 5 7 7 8 7 7 8 7 6 5 5 6 7 7 8 9 8 7 7 7 8 8 8 8 9 10 11 12 13 12 12 12 12 13 13 13 13 13 13 13 13 14 14 14 13 13 13 13 13 13 13 13 13 13 13 13 12 12 11 11 11 11 11 11 10 10 10 9 9 8 8 8 8 7 7 6
0 4 4 5 4 4 3 2 7 6 6 6 6 6 6 6 5 5 4 3 4 5 6 7 8 8 7 8 8 7 6 5 6 7 7 8 9 9 8 8 8 8 9 9 10 10 11 12 12 13 12 12 12 12 12 13 13 13 13 13 13 13 13 13 13 13 13 13 13 13 13 13 13 13 13 13 13 13 12 11 11 11 11 11 11 11 11 11 11 11 11 11 10 11 11 10 9
2 4 4 2 2 2 1 3 8 8 8 7 6 6 6 6 6 6 5 4 5 5 6 6 6 8 8 8 9 8 7 6 6 7 8 7 8 9 9 9 9 9 10 10 11 11 12 13 13 13 13 13 12 12 12 12 12 13 12 12 12 12 12 12 12 12 12 12 13 13 12 12 13 13 13 12 12 12 12 11 11 11 12 11 11 11 11 12 11 11 12 12 12 12 12 12 11
2 6 3 4 2 3 2 2 6 8 9 7 6 7 6 6 6 6 6 6 6 6 6 5 6 8 8 8 8 9 8 7 8 8 8 9 9 9 9 9 10 10 11 11 12 13 13 13 14 13 13 12 12 12 12 12 12 12 12 11 12 11 11 11 11 11 11 11 12 12 12 13 12 12 12 12 13 12 12 12 12 12 12 12 11 11 11 12 12 12 13 13 13 13 13 13 13
5 8 4 2 0 2 3 3 7 7 8 8 7 8 7 6 7 7 7 7 7 7 6 6 7 8 7 8 7 8 8 8 9 10 9 10 10 10 10 10 11 12 12 12 12 13 14 14 14 13 12 12 11 11 11 11 11 11 11 10 11 10 10 10 10 10 10 10 11 12 12 12 12 12 11 12 12 12 12 12 12 12 12 12 12 12 12 11 12 12 13 13 14 14 14 13 13
5 7 8 6 4 4 5 6 6 5 6 9 9 8 8 7 7 7 7 8 8 7 7 7 7 8 7 7 7 7 8 8 9 10 10 10 11 11 12 12 12 13 13 13 13 14 14 14 14 13 12 11 11 11 11 10 10 10 10 10 10 10 9 9 9 9 10 10 10 11 11 11 11 11 10 11 11 12 12 12 12 12 12 12 12 11 11 11 11 12 13 13 13 13 13 13 13
11 11 12 6 7 8 7 8 7 5 5 9 9 8 8 8 7 7 7 9 10 8 8 8 7 8 6 6 7 7 8 8 10 11 10 10 11 12 12 13 14 14 14 14 14 14 14 14 13 13 12 11 11 11 10 10 10 10 9 9 9 9 8 8 9 9 9 9 9 10 10 9 10 9 9 9 10 12 12 11 11 12 11 11 11 10 10 11 10 11 11 11 11 12 11 11 12
10 13 14 8 11 11 9 10 9 7 7 9 9 8 8 7 7 7 7 9 10 9 8 8 7 8 7 6 7 7 8 9 10 11 11 11 11 12 12 13 14 15 15 16 15 14 14 13 13 12 12 11 10 10 10 10 10 10 9 9 8 8 8 8 8 8 8 9 8 9 8 8 9 8 8 8 10 11 11 11 11 12 11 11 11 11 11 11 10 11 11 10 10 11 10 10 10
6 6 13 12 15 14 10 10 8 6 10 12 9 10 8 6 7 7 7 9 9 9 8 8 7 7 7 7 7 7 8 10 11 11 12 12 12 13 13 14 14 15 16 16 15 14 13 12 12 11 11 11 10 10 10 10 10 10 10 9 9 8 7 7 7 7 7 8 7 7 7 7 7 7 7 8 9 10 10 10 10 10 10 10 10 10 11 11 11 11 11 11 11 11 10 10 10
3 6 15 14 14 16 10 8 8 5 13 17 10 9 9 6 8 8 7 8 9 9 8 8 7 7 8 8 7 7 8 10 11 11 12 12 12 13 14 14 14 15 15 15 14 13 12 11 11 10 10 10 10 10 10 10 10 10 9 9 9 8 8 7 6 6 6 6 6 6 6 5 5 6 6 7 8 9 9 9 9 9 9 9 9 9 10 10 11 11 11 11 11 11 11 10 10
8 12 19 14 13 15 10 6 7 5 10 19 13 9 10 7 8 8 7 8 8 8 8 8 7 6 8 9 8 8 9 11 11 11 12 12 12 13 14 14 14 15 15 14 13 12 11 11 10 9 9 9 9 9 9 9 9 8 9 8 8 8 7 7 6 5 5 5 4 4 4 4 5 6 6 6 8 8 9 9 9 9 9 9 9 9 10 10 11 11 11 11 11 11 10 10 10
15 19 22 17 15 11 9 9 6 7 11 16 14 11 11 9 9 9 7 8 8 7 8 8 8 7 8 9 9 7 8 10 11 11 12 13 13 14 14 14 14 14 14 13 12 11 11 10 9 9 9 9 9 9 8 8 8 7 7 7 7 7 6 6 5 4 4 4 4 3 3 3 5 6 6 6 7 8 9 10 10 9 9 9 9 9 9 10 11 11 11 11 11 11 10 10 10
20 17 17 16 13 9 12 14 6 7 14 17 14 12 12 10 10 10 8 7 8 7 7 7 8 9 8 9 9 7 8 10 11 12 13 14 15 14 14 14 13 13 13 12 12 11 10 9 9 8 8 8 8 8 7 7 6 6 6 5 5 5 5 4 4 3 3 3 3 3 3 4 5 6 6 6 7 8 9 9 8 8 8 9 9 9 10 10 10 11 11 11 11 11 11 10 10
22 17 14 13 10 8 15 17 9 8 14 18 14 12 13 11 10 11 9 7 8 8 7 7 8 10 9 9 9 8 8 9 10 12 14 15 15 14 14 14 13 13 12 12 11 10 9 9 8 8 8 7 7 7 6 6 5 4 4 4 4 4 3 3 3 2 2 2 3 4 4 5 5 5 6 6 7 8 8 9 8 8 8 8 9 10 9 10 10 11 11 11 11 11 11 11 11
21 18 14 13 9 8 14 15 12 11 12 14 13 13 13 11 11 13 11 8 9 8 7 7 8 9 10 10 10 8 8 9 10 12 13 14 14 14 14 13 13 13 12 11 10 9 8 8 8 7 7 7 6 6 5 4 4 3 3 3 3 3 2 2 1 1 1 2 2 4 4 5 5 5 5 6 6 7 8 9 9 9 9 8 9 10 9 10 11 11 12 12 11 11 11 11 11
21 21 16 14 9 8 13 14 12 15 14 12 12 13 12 11 13 15 13 10 10 9 7 8 8 9 9 10 10 9 9 9 10 11 12 13 12 13 13 13 13 12 11 10 10 9 8 7 7 7 6 6 5 4 4 3 2 2 2 2 2 2 2 2 2 1 1 2 2 3 4 5 4 5 5 6 7 8 8 9 9 10 10 10 10 11 10 11 11 12 12 12 12 12 12 12 12
22 22 17 13 11 13 18 18 15 14 14 14 14 13 11 11 13 14 14 12 11 10 8 9 8 8 9 9 10 10 9 9 10 10 11 11 12 12 12 12 12 12 11 10 9 9 8 8 7 6 6 5 4 3 3 2 0 1 1 2 3 3 3 2 2 1 1 1 2 3 4 5 5 5 6 7 7 8 9 9 10 10 11 12 12 12 13 13 13 13 14 14 14 14 14 13 13
20 19 15 11 12 16 21 21 17 14 14 16 15 16 13 11 14 14 13 13 13 11 10 10 10 9 9 9 10 11 10 10 10 10 11 11 11 11 11 11 11 11 11 10 10 9 8 8 7 6 5 4 4 3 3 2 2 1 2 3 3 3 3 2 1 1 1 1 1 2 3 4 5 5 6 6 7 8 9 11 11 11 12 14 14 15 16 15 16 16 16 16 16 16 16 15 15
18 15 14 10 11 18 21 19 18 15 14 17 16 17 16 13 18 17 13 14 14 13 12 11 11 10 9 10 10 11 10 10 11 11 11 11 11 11 11 11 10 10 10 10 10 9 9 8 7 6 5 5 5 4 4 4 3 3 3 3 3 3 2 2 1 1 1 1 1 1 2 2 4 5 6 6 7 8 9 11 13 13 14 15 16 17 17 17 18 18 18 18 17 17 17 17 16
20 15 15 17 16 19 18 14 19 20 16 19 18 17 18 18 21 20 15 16 15 14 14 13 13 11 10 11 11 12 11 11 11 11 11 11 11 11 11 11 10 10 10 10 10 10 9 9 8 7 6 6 6 6 6 5 5 4 4 4 4 3 3 2 2 1 1 2 2 2 3 3 4 6 7 8 8 9 10 12 14 16 17 17 17 17 18 18 18 19 19 19 19 18 18 18 17
23 19 17 20 19 20 16 8 17 24 18 20 20 19 21 21 23 23 18 17 15 14 15 14 14 13 12 12 12 12 12 11 11 11 10 10 10 10 11 11 10 11 11 11 10 10 9 9 9 9 8 8 8 7 7 7 6 5 5 5 4 4 3 3 3 3 3 4 4 5 5 6 7 8 9 10 11 12 13 14 16 17 18 18 18 17 18 18 18 19 19 19 19 18 18 18 18
26 23 21 22 20 19 18 11 18 27 24 23 25 22 22 22 23 22 20 18 14 14 16 16 16 15 14 14 13 13 12 11 12 12 11 11 11 10 10 10 10 10 10 10 10 10 10 10 10 10 10 10 9 9 9 8 7 6 6 5 5 5 5 4 5 5 5 6 7 8 9 9 10 11 12 12 14 15 15 16 17 17 17 17 17 16 17 18 18 19 19 18 18 18 18 19 18
29 27 25 24 20 18 19 15 18 28 32 28 28 26 23 23 23 22 22 18 15 15 16 17 17 16 16 15 15 14 12 12 13 13 12 12 11 11 10 10 10 9 9 9 10 10 11 11 11 11 11 11 10 10 10 9 8 7 7 7 6 6 6 6 7 7 7 8 9 10 11 12 12 13 14 14 15 16 16 16 16 16 16 15 15 16 16 17 18 18 18 18 18 18 18 19 19
30 30 27 23 20 19 18 14 15 25 35 31 25 25 23 23 23 23 22 20 19 18 17 18 18 18 18 16 16 16 15 14 14 14 14 13 12 12 12 11 9 9 9 10 10 11 11 11 11 11 12 12 11 12 11 10 10 9 8 8 7 7 8 9 9 9 9 10 11 12 13 13 14 15 15 14 14 15 15 15 15 15 15 15 15 16 17 17 17 18 18 18 19 19 18 18 19
32 31 30 25 20 20 19 16 16 25 34 30 24 25 24 24 25 24 24 23 23 21 19 19 19 19 19 18 17 17 16 16 16 16 15 13 13 12 11 11 10 10 10 10 10 10 11 11 12 12 13 13 13 13 12 11 11 10 10 10 9 10 10 11 11 11 11 12 13 14 14 15 15 15 15 14 13 13 14 14 14 14 15 15 15 16 16 17 18 18 19 19 19 20 19 18 19
33 31 30 28 24 21 21 19 20 29 33 28 27 29 27 27 28 27 26 26 27 25 22 21 21 21 20 19 19 18 16 17 17 17 16 14 13 12 11 12 12 12 12 11 10 9 10 10 11 12 13 13 13 13 12 12 12 11 11 11 11 11 12 12 12 12 13 13 13 14 14 15 15 14 14 13 13 13 13 13 14 15 15 16 16 16 16 17 18 18 19 20 20 20 20 19 19
34 30 28 28 27 26 23 21 23 30 30 27 28 27 25 26 28 29 28 28 28 27 24 23 23 23 21 20 20 19 18 18 19 19 17 15 14 13 13 13 13 13 13 11 10 10 11 11 11 11 12 12 13 13 13 13 13 12 12 12 12 13 13 13 13 13 13 13 13 14 14 15 14 13 13 12 12 12 13 14 15 16 16 16 17 17 17 18 19 20 20 20 21 20 21 20 21
32 30 28 27 26 28 27 26 26 27 27 27 27 27 28 28 27 28 29 29 29 28 26 24 23 22 22 22 21 22 21 20 20 20 20 18 16 16 15 15 16 15 14 13 13 13 13 12 12 11 11 12 12 13 13 13 13 13 13 13 13 14 14 14 14 14 14 14 14 14 14 14 13 13 12 12 12 13 14 15 15 16 16 16 17 18 19 20 20 21 21 21 22 22 22 22 22
31 31 31 27 26 27 27 28 28 29 33 32 30 34 35 30 27 29 32 30 28 28 27 25 25 24 23 24 24 24 23 20 19 20 22 21 20 19 18 18 17 16 15 15 15 15 14 13 12 13 13 13 13 13 14 13 13 14 14 14 14 15 15 15 14 14 15 15 15 14 14 14 13 12 12 12 13 14 14 15 15 15 15 16 16 18 19 20 21 21 21 22 22 24 24 25 25
30 32 32 29 27 28 29 29 29 33 39 35 31 33 36 33 27 28 33 31 27 27 27 28 29 26 25 25 24 23 22 20 19 21 22 22 22 22 20 18 17 17 17 17 17 17 16 15 14 14 15 15 15 14 14 14 14 15 15 16 15 16 16 15 15 14 15 15 15 15 14 14 13 12 12 12 13 14 14 15 16 16 17 17 18 19 19 21 21 21 21 22 23 24 25 25 26
34 34 33 31 30 30 31 32 33 38 40 35 30 30 32 35 28 22 28 30 28 28 27 28 29 26 26 26 23 22 23 22 21 21 21 21 21 22 20 17 17 17 17 18 19 20 19 18 17 17 17 16 16 15 15 15 16 16 17 17 17 17 16 16 15 15 15 15 15 15 15 14 13 12 12 12 13 14 16 17 18 19 20 20 20 20 21 22 23 24 25 25 25 25 24 25 25
38 37 35 35 34 33 34 35 36 39 37 30 28 29 32 35 28 22 25 25 26 29 28 27 27 26 26 25 21 22 23 22 21 21 20 20 19 18 17 15 14 15 17 18 20 20 19 19 19 18 18 18 17 16 16 16 17 17 18 18 18 17 17 16 15 15 15 15 15 15 15 14 14 13 13 13 14 16 18 19 20 21 22 22 22 22 22 23 24 26 28 29 28 27 26 25 25
39 40 40 39 39 37 38 37 34 35 34 29 26 28 32 33 30 28 30 28 25 27 28 29 28 25 25 24 21 22 23 23 22 21 19 17 17 17 16 13 10 10 14 16 18 19 19 19 19 20 20 19 19 18 18 18 18 18 18 18 18 18 17 16 16 16 16 15 15 15 15 15 14 15 15 15 16 17 18 19 20 21 22 22 22 22 23 24 26 27 30 31 31 30 29 29 28
39 40 42 43 43 42 41 36 32 33 34 29 27 31 34 31 28 27 28 29 27 26 26 28 28 26 27 26 23 21 22 23 23 22 18 15 15 17 15 12 8 7 9 12 14 16 18 19 20 21 21 21 20 20 21 20 20 20 19 19 18 18 18 17 16 16 16 16 16 15 15 15 15 16 16 16 16 17 18 19 21 22 23 23 24 24 26 27 28 29 31 33 33 33 32 31 30
39 40 43 45 44 45 42 34 29 29 31 30 28 32 34 30 27 26 26 28 28 26 23 24 26 26 26 26 23 21 20 20 22 22 18 15 15 16 14 11 8 6 6 8 10 11 14 16 18 20 21 21 21 21 21 21 21 20 20 19 19 19 19 18 17 17 17 16 16 16 16 16 16 17 17 17 17 17 18 20 21 22 23 24 25 26 27 28 29 30 32 33 34 34 33 32 31
35 38 45 45 44 46 44 36 30 29 31 31 28 30 31 28 27 27 29 29 27 25 22 23 24 21 21 23 24 22 19 17 19 19 18 18 16 15 13 11 8 5 4 5 7 9 10 12 14 16 17 19 20 20 21 22 22 21 21 21 21 20 20 20 19 18 17 17 17 17 17 16 16 16 16 17 18 19 20 21 23 23 23 23 24 25 27 27 28 31 32 33 33 33 33 32 30
34 38 42 41 41 45 43 39 36 35 35 32 29 32 31 28 28 27 27 26 25 25 24 25 25 19 18 21 24 23 20 18 19 19 20 21 20 17 14 11 7 5 5 5 7 8 8 9 10 12 13 15 17 18 20 21 21 22 22 22 22 22 22 22 20 18 18 17 17 17 17 17 16 15 16 18 19 20 22 22 24 25 24 24 25 26 27 28 29 31 32 33 33 32 33 32 30
38 38 34 34 41 46 43 41 41 41 40 34 30 31 30 28 28 28 28 26 25 26 24 27 29 23 18 19 22 25 23 19 19 19 21 22 21 18 15 11 9 7 7 7 8 9 8 8 9 10 12 13 15 17 17 19 20 21 21 22 22 22 23 22 20 18 18 17 17 17 17 16 16 16 17 18 19 20 22 23 24 26 26 27 27 26 27 28 30 31 33 34 33 32 32 32 30
38 40 34 31 39 46 44 44 44 44 41 35 33 33 30 28 28 27 27 25 28 33 29 26 27 25 24 20 20 27 24 17 17 19 23 24 21 19 16 14 12 10 10 10 10 9 8 8 8 9 11 12 13 14 15 16 17 18 19 19 20 21 21 20 18 18 17 16 16 16 16 16 16 17 17 18 19 19 21 23 24 26 27 28 28 28 29 30 31 32 33 33 33 31 31 32 33
37 42 44 37 33 38 41 42 43 45 45 39 35 35 33 28 25 26 26 27 34 38 36 31 26 28 28 20 19 30 31 23 21 22 24 27 24 22 20 18 15 13 13 13 11 9 8 9 9 9 10 11 12 13 14 15 15 16 16 16 16 17 17 17 16 15 15 16 16 15 15 15 16 16 17 17 19 19 21 23 24 25 26 28 30 31 32 32 31 31 32 32 30 30 30 33 36
33 38 46 45 37 31 33 39 40 42 47 45 38 36 34 29 25 24 26 27 34 36 34 34 30 31 34 25 24 33 35 29 27 27 28 29 26 24 22 20 17 15 13 13 12 10 8 9 10 10 10 10 12 13 13 14 14 14 13 13 13 13 13 13 13 13 14 15 16 15 15 16 17 17 16 18 19 20 21 22 24 25 26 27 30 31 32 32 31 30 31 29 26 27 30 34 37
Wind_Direction
119 113 103 94 76 84 97 82 79 80 69 66 67 67 66 69 66 66 70 70 64 55 55 62 104 121 149 153 126 123 107 106 117 112 109 112 112 117 117 112 103 95 95 92 89 89 84 79 80 85 88 85 82 85 91 97 102 102 98 95 98 101 104 105 104 103 102 100 99 99 97 91 87 83 81 81 79 74 68 66 65 65 65 66 69 71 69 70 71 71 68 63 61 63 66 66 66
120 114 105 95 74 76 92 93 83 72 63 64 68 70 61 63 68 64 61 63 63 57 57 66 93 118 134 131 120 113 109 112 114 107 107 114 111 111 114 108 99 95 94 90 89 86 77 72 79 85 82 80 82 86 90 92 96 98 98 97 100 101 102 103 104 104 101 101 99 97 92 86 84 81 82 81 79 75 70 68 66 66 66 67 70 73 75 74 74 73 73 68 65 66 67 67 67
118 118 116 109 93 85 89 85 78 71 66 63 59 68 62 59 69 67 58 58 57 57 64 69 77 103 122 125 119 112 116 113 103 100 104 111 106 106 109 104 100 97 94 91 86 79 72 71 76 80 76 76 80 85 86 86 90 96 97 98 102 104 105 108 109 108 104 101 97 92 87 83 81 81 82 80 77 74 72 69 67 67 66 66 67 69 71 72 74 75 76 76 72 68 68 70 70
109 102 114 112 97 96 99 87 70 58 39 38 46 64 87 75 71 69 60 66 66 69 78 78 78 94 108 113 112 111 115 108 101 100 99 102 100 101 103 102 101 98 95 89 80 75 75 74 76 77 74 75 78 80 82 84 89 94 96 98 104 108 111 114 113 107 102 96 92 88 84 81 81 84 83 78 76 75 73 71 68 68 68 68 68 67 67 68 70 72 75 81 83 74 71 75 78
93 83 83 87 78 77 88 86 67 52 11 356 40 52 94 81 71 76 64 73 75 78 80 76 79 90 100 100 103 108 109 104 106 101 95 96 96 98 98 98 97 93 91 87 81 79 79 78 79 78 76 77 78 79 82 86 92 96 98 100 104 108 112 112 108 102 97 93 89 84 81 82 84 84 80 76 75 74 73 73 70 70 70 70 69 68 67 68 68 68 71 77 87 88 78 78 84
96 95 85 78 68 62 70 68 54 48 352 344 27 29 78 77 70 93 80 76 79 81 77 75 82 87 95 99 98 101 101 98 102 101 99 95 93 98 97 94 92 88 87 84 82 83 81 79 78 78 78 79 78 80 84 87 93 97 94 97 101 103 105 103 101 96 93 89 84 82 84 86 85 83 77 73 71 71 72 73 73 73 74 72 71 70 66 66 65 62 62 65 76 91 112 102 94
103 97 88 79 69 64 70 67 49 12 339 345 347 20 56 70 171 155 194 117 92 86 86 88 91 91 96 99 95 96 92 89 92 96 101 99 95 98 97 97 94 88 86 81 78 79 78 76 77 78 80 79 78 79 82 84 87 90 89 91 94 95 96 93 92 90 88 85 83 84 87 87 84 80 75 72 70 70 71 73 76 77 78 76 73 71 69 65 60 54 50 50 58 69 149 211 202
104 89 84 73 70 68 67 63 49 311 337 328 336 359 35 6 244 213 231 236 219 137 114 113 99 99 107 103 92 90 89 87 89 93 100 100 97 97 95 98 97 90 85 80 77 77 77 77 79 80 79 75 72 72 75 78 82 85 86 86 87 87 85 84 84 83 84 84 87 88 85 83 82 80 76 74 72 72 72 72 73 74 74 74 74 72 70 66 59 50 40 35 40 44 35 244 237
121 89 82 81 76 65 63 55 341 48 348 326 342 328 344 309 279 257 244 251 234 219 138 124 105 104 110 103 92 88 93 95 98 98 102 102 100 98 95 93 93 92 86 80 79 78 79 79 79 76 73 69 66 69 73 76 80 82 82 82 82 82 82 81 80 80 85 89 93 90 87 85 83 82 78 75 73 74 72 67 66 67 69 72 74 73 72 69 61 51 33 13 14 18 13 340 268
122 106 85 82 79 74 80 195 276 30 342 337 327 312 325 302 293 301 268 263 236 221 247 183 131 124 133 113 107 110 109 106 106 106 105 103 100 100 98 92 87 91 87 80 77 78 81 79 74 74 74 74 73 73 76 76 78 79 79 81 83 85 85 84 84 86 90 95 97 96 95 94 90 87 82 77 74 74 70 63 60 59 62 66 70 68 65 63 57 53 40 8 356 347 346 337 317
122 114 91 74 75 79 107 242 328 320 293 312 302 302 297 276 276 281 268 267 258 249 258 218 170 157 158 142 147 156 140 127 115 114 110 103 101 102 100 95 88 87 85 79 77 80 81 78 72 77 81 81 81 81 80 78 79 82 84 86 89 91 91 89 89 91 94 98 101 103 103 100 96 91 86 81 75 71 66 63 60 54 50 48 54 52 40 31 26 23 2 356 7 340 332 328 321
147 136 110 92 80 74 74 13 16 348 305 300 295 288 278 273 267 266 265 264 264 262 262 244 198 184 186 189 201 194 168 147 129 125 119 113 108 103 103 102 98 90 87 84 83 85 82 78 77 80 83 84 86 86 83 84 87 90 92 94 94 93 92 92 92 93 95 98 101 103 103 100 97 91 85 81 74 67 63 62 59 49 36 24 20 12 356 349 343 323 301 282 279 314 316 319 322
143 144 127 106 90 85 108 290 298 312 291 302 302 288 278 267 264 263 265 262 262 260 252 249 231 199 195 218 226 212 189 166 148 142 132 127 121 111 108 108 107 99 95 92 88 90 87 84 85 85 87 90 91 90 90 92 94 95 96 95 93 92 92 92 92 93 94 95 96 96 96 94 90 86 82 77 72 65 61 57 52 41 21 3 345 336 332 330 327 317 305 285 270 272 288 299 308
146 126 103 112 105 102 105 92 299 291 290 306 300 293 288 265 267 272 270 261 256 257 253 253 235 203 203 219 228 222 208 192 182 170 154 145 135 127 125 119 117 110 101 95 91 92 95 93 91 92 94 97 98 98 97 97 97 96 95 92 90 90 91 92 92 92 92 91 90 88 87 85 83 81 79 77 72 66 58 51 42 26 359 344 333 329 327 325 322 317 309 293 281 274 281 292 297
148 109 88 93 105 104 83 90 245 288 302 308 296 297 293 274 275 272 271 261 253 252 252 254 230 206 218 225 221 221 223 215 210 201 178 169 153 138 141 141 133 124 114 105 103 105 107 105 101 100 101 105 106 105 103 100 97 95 93 91 90 91 91 92 92 91 90 88 86 85 83 82 81 80 79 77 74 69 61 50 36 23 8 356 345 339 336 334 334 333 325 312 301 292 292 300 304
145 124 91 87 114 130 132 309 258 282 304 311 299 294 292 283 276 258 266 262 254 250 243 241 231 223 224 221 219 221 231 233 225 216 194 173 157 148 157 156 144 137 128 120 120 119 115 112 109 109 110 112 112 108 103 98 95 94 92 91 91 92 93 92 92 90 89 87 85 83 81 80 80 80 79 78 76 72 66 59 51 44 40 35 29 17 11 13 15 16 8 359 349 337 332 330 324
177 156 79 109 122 122 100 326 276 279 301 310 299 292 292 285 277 259 265 266 256 246 235 235 241 237 227 220 222 223 221 234 231 213 192 170 159 158 163 158 151 145 136 130 127 123 119 117 114 114 115 115 114 108 101 97 96 94 92 93 94 94 93 93 91 89 87 85 83 80 78 76 77 77 76 75 74 72 68 65 61 58 58 56 55 53 50 47 43 39 33 25 16 9 5 359 351
177 25 66 121 97 52 79 353 285 294 303 304 298 295 293 284 280 265 255 256 249 238 232 243 251 243 234 227 224 219 209 225 228 205 186 172 161 158 160 157 155 147 140 134 128 123 119 117 115 113 113 112 109 105 100 98 98 96 94 94 94 94 93 91 89 86 85 83 82 78 76 74 74 76 74 74 74 71 68 65 63 61 62 62 62 63 64 64 63 59 54 47 37 33 33 27 21
177 27 48 129 78 30 77 328 291 297 299 303 298 288 291 288 281 266 256 244 243 240 242 248 250 249 245 237 230 219 203 208 218 199 185 173 157 154 158 159 157 150 143 135 130 129 124 118 116 114 113 110 107 103 102 102 101 98 95 94 93 92 91 89 86 84 84 84 83 80 79 78 76 75 74 73 72 70 68 65 64 62 60 60 61 62 65 69 69 69 67 61 54 48 48 46 44
316 331 14 19 19 340 337 307 292 291 286 291 292 285 287 287 282 272 265 253 249 242 247 248 240 253 258 246 236 222 202 192 206 202 183 168 155 155 158 160 157 151 143 138 136 135 130 124 120 118 117 113 110 107 105 104 101 97 94 93 92 91 89 87 86 85 85 85 85 84 83 81 78 75 74 72 70 69 67 65 62 61 60 58 58 60 63 65 65 68 69 67 64 59 55 52 49
296 292 8 32 2 305 298 290 283 285 280 278 282 285 283 278 280 275 268 257 253 245 247 255 242 251 258 247 236 226 210 190 201 205 187 168 158 156 155 156 155 150 144 141 142 139 135 128 125 123 119 116 114 111 106 102 98 94 92 92 91 91 90 88 88 87 85 84 84 83 81 79 77 75 73 71 68 65 65 65 61 60 61 59 56 57 59 62 63 65 68 69 69 65 60 56 51
210 261 290 346 302 270 284 277 275 280 281 277 273 277 277 275 276 270 266 261 260 255 250 256 249 250 254 248 238 230 217 193 198 203 191 175 163 158 153 155 155 150 146 144 144 140 135 130 127 123 120 118 115 109 102 99 97 93 92 92 91 90 90 90 90 88 86 82 81 80 79 77 75 72 68 65 63 60 59 60 59 58 59 59 56 54 55 59 62 63 64 64 65 64 60 57 52
248 248 270 264 250 262 272 273 268 270 272 276 273 272 275 271 268 266 256 255 265 265 258 253 243 244 246 246 236 225 218 194 193 199 190 180 169 164 158 155 155 151 147 145 144 139 135 130 127 124 122 118 113 108 102 98 95 93 93 91 91 89 90 93 93 91 87 82 79 78 79 77 74 70 64 60 60 59 60 58 58 59 58 59 58 56 56 56 58 61 61 57 58 60 58 54 50
282 284 288 271 262 261 257 271 276 272 259 269 270 260 268 269 261 261 251 251 266 269 263 256 240 240 239 238 230 214 210 190 185 190 186 182 171 165 158 152 152 151 148 146 143 140 136 131 129 128 124 119 112 107 103 101 98 95 94 92 91 88 87 91 92 90 87 83 79 77 76 74 70 66 60 56 57 59 60 61 61 62 60 60 59 57 57 53 52 58 62 58 55 56 55 51 46
247 265 282 282 285 281 262 268 276 275 258 259 268 259 257 264 259 252 249 253 267 269 263 260 239 236 239 230 224 209 199 184 178 179 177 177 170 162 156 153 153 150 148 146 144 142 137 133 132 129 123 117 111 106 103 101 99 96 93 90 89 86 83 84 86 86 85 82 79 75 72 67 61 56 54 51 53 57 59 60 60 61 60 60 57 52 52 51 47 48 52 52 49 50 49 47 44
217 268 293 276 273 277 268 274 283 291 284 269 257 259 255 251 257 249 245 251 263 264 258 259 235 225 237 230 219 207 195 186 180 177 174 173 169 162 157 156 154 151 148 145 143 140 136 134 131 125 119 115 110 107 103 100 98 95 91 88 85 82 82 80 81 79 79 79 76 74 68 62 60 53 47 47 51 55 58 59 60 62 60 58 57 53 51 49 45 43 42 42 41 40 38 37 37
185 313 295 279 270 268 265 302 322 319 297 284 252 247 255 239 252 249 240 246 257 261 251 250 237 220 228 226 214 205 198 191 187 186 181 175 170 164 161 159 155 151 147 145 143 140 138 134 128 122 119 116 113 109 105 102 98 94 91 87 83 81 80 77 75 71 70 75 73 70 65 54 56 56 48 45 49 51 56 59 57 58 57 54 54 52 48 45 43 42 41 38 37 34 29 24 23
184 227 237 247 266 259 239 258 281 212 242 269 257 242 250 237 247 249 240 247 252 254 246 241 235 220 220 221 213 207 202 193 193 197 188 178 172 168 163 160 156 151 148 146 144 141 139 133 127 125 122 119 115 111 107 102 98 94 90 86 85 83 81 78 74 69 64 66 68 65 61 42 37 45 45 42 45 48 51 53 47 43 43 42 45 45 40 38 37 35 34 31 30 28 21 15 12
210 207 208 224 251 258 253 251 249 197 212 247 249 235 239 236 244 251 245 247 248 245 242 239 232 221 215 216 212 207 206 197 191 192 187 178 173 169 164 159 156 153 150 148 146 143 140 135 133 131 126 124 120 115 109 102 98 93 89 86 85 83 82 82 76 70 59 53 54 49 43 33 30 34 36 36 37 41 44 45 40 34 31 29 32 36 33 31 31 27 24 21 19 17 12 8 2
213 208 207 223 244 263 277 270 245 212 223 232 238 234 233 230 237 250 247 242 245 240 240 240 232 224 213 207 204 197 200 194 182 180 179 174 171 167 163 161 158 156 153 150 148 145 141 141 140 136 133 130 125 119 112 105 99 92 87 83 82 81 79 79 75 65 55 44 36 29 20 20 29 33 32 31 29 33 38 39 34 29 26 21 19 23 25 24 24 22 17 15 10 5 3 358 349
213 219 232 229 221 230 256 257 231 209 228 232 236 234 230 228 232 246 247 241 244 239 241 242 230 229 217 203 197 184 187 184 173 174 171 169 169 166 163 162 160 158 157 153 151 150 148 150 148 145 144 136 130 123 116 109 99 90 84 79 74 75 72 70 71 59 45 32 21 17 13 11 18 28 30 27 26 28 30 31 25 16 14 15 11 10 13 14 14 12 9 7 2 357 356 350 340
217 218 234 240 223 224 244 244 215 198 216 227 228 227 233 235 234 246 245 235 243 240 239 243 233 231 224 210 200 182 181 179 167 169 168 166 167 165 164 163 163 162 160 159 157 157 157 157 156 154 151 144 138 129 123 115 102 86 72 63 56 53 50 45 49 47 26 5 9 12 8 5 7 17 20 19 23 23 20 19 15 5 356 1 3 357 357 2 2 0 358 355 350 348 347 343 333
224 220 219 230 240 247 249 250 229 210 212 219 223 225 237 238 230 241 245 235 242 243 236 243 239 232 225 214 208 192 185 181 170 170 168 167 168 167 167 165 166 166 166 167 165 164 166 166 166 163 159 153 145 138 133 125 105 81 42 20 16 9 4 7 3 8 2 343 358 6 6 3 360 7 13 12 14 10 6 5 1 353 344 345 349 342 342 350 351 348 345 340 338 338 336 334 328
223 226 214 197 217 251 256 255 243 231 231 228 227 228 232 240 236 235 241 240 241 242 238 241 240 235 227 214 210 203 196 190 179 176 173 172 173 171 171 170 170 172 172 173 173 176 178 178 179 174 170 165 159 160 158 162 149 26 348 341 344 342 343 347 345 352 350 343 356 2 8 7 358 4 8 6 7 360 354 352 349 344 337 335 335 330 331 339 339 335 333 330 329 327 325 326 324
219 224 224 187 191 232 250 251 241 240 244 233 229 231 228 241 251 242 238 241 240 241 242 243 242 235 229 222 215 208 200 196 190 185 182 180 180 179 178 178 178 181 183 182 183 187 191 192 192 189 185 184 188 194 204 223 252 292 309 316 322 325 329 329 325 341 341 342 350 359 11 6 351 352 354 352 358 356 346 342 340 336 331 328 327 325 328 332 329 326 324 322 321 319 319 320 321
212 214 236 231 217 230 238 244 245 247 249 243 234 230 228 230 244 249 243 238 236 239 242 244 245 236 229 227 221 216 204 197 198 196 193 188 187 187 187 188 189 192 194 194 197 200 202 203 204 205 204 207 216 221 228 244 258 272 289 299 303 305 303 299 299 299 293 298 314 343 351 343 331 331 332 332 340 341 333 330 328 326 324 323 322 322 324 325 322 320 317 315 314 313 314 315 318
202 200 228 238 239 242 237 228 242 252 256 255 243 232 234 228 236 250 248 234 230 235 241 243 243 237 232 229 223 221 212 201 201 201 202 200 197 196 195 197 199 202 205 206 208 211 212 213 215 218 219 225 232 236 240 249 258 267 279 286 286 283 279 268 259 258 255 269 280 285 285 293 304 308 313 318 321 321 318 317 317 318 318 316 316 317 317 317 315 312 310 310 309 310 311 312 314
203 197 216 233 236 244 249 226 236 250 261 266 255 238 237 233 239 250 244 232 226 231 241 243 242 237 229 227 223 222 217 207 203 202 206 208 208 208 206 207 207 209 212 216 217 218 220 220 224 226 227 233 238 243 247 249 255 262 267 270 271 265 257 251 248 250 254 264 275 279 282 290 297 300 306 310 310 309 308 309 310 312 312 310 310 310 309 308 307 305 304 304 304 306 308 309 310
214 203 207 226 235 243 253 245 238 252 265 272 268 254 241 238 243 247 242 234 228 232 238 241 242 237 228 226 223 221 218 211 205 204 207 211 214 216 218 219 220 221 222 224 226 227 228 227 229 232 232 237 240 243 247 248 251 255 258 258 255 253 248 245 248 252 259 267 275 282 289 296 301 303 306 306 304 304 305 306 307 307 306 305 304 303 302 301 301 301 302 302 303 304 306 306 307
217 211 204 214 226 236 243 236 233 254 267 268 268 264 249 241 242 243 242 238 232 232 235 239 241 236 229 227 224 220 216 215 212 209 207 210 214 214 219 224 225 230 234 237 237 235 237 237 237 238 239 240 241 243 245 246 247 246 249 250 244 245 246 246 249 253 260 268 276 284 292 299 302 300 299 300 301 302 303 304 304 303 302 301 300 299 298 299 300 301 303 303 303 303 304 304 304
217 214 205 207 221 230 233 225 216 242 259 261 258 258 249 241 242 243 244 242 239 236 233 236 239 236 235 232 227 221 214 215 217 216 210 208 212 211 213 217 220 226 230 237 243 244 245 247 247 245 244 244 241 243 243 242 243 242 242 245 242 242 245 249 254 259 265 272 279 287 294 299 300 296 294 298 299 299 300 301 300 301 301 301 301 300 301 301 302 303 304 304 303 302 301 301 301
220 216 208 205 215 225 224 221 220 232 247 254 254 257 256 249 246 244 242 241 241 240 235 234 234 234 237 237 236 229 220 218 217 216 214 209 212 214 214 213 212 215 220 226 233 242 248 250 251 250 248 247 244 244 244 242 242 242 242 243 242 243 247 253 258 264 271 278 284 290 296 297 296 295 295 298 298 298 300 302 303 303 304 303 303 303 304 306 306 306 306 305 303 302 301 301 300
222 221 216 207 204 217 225 222 226 235 245 258 264 262 259 254 247 243 241 239 240 237 232 232 232 233 236 238 241 238 230 227 224 219 215 214 218 218 218 221 222 222 222 224 227 233 242 245 247 249 250 250 250 248 245 244 244 244 245 245 245 249 254 259 264 270 276 282 288 292 295 295 294 293 295 297 298 300 303 306 307 307 306 305 306 307 309 312 312 312 310 307 305 303 302 302 301
225 221 223 220 205 206 222 228 231 238 251 270 275 264 256 252 246 243 243 241 240 237 231 229 230 232 236 238 241 241 236 232 234 232 223 216 219 224 227 228 232 235 233 231 231 232 236 240 243 247 250 252 253 253 249 248 249 248 250 251 251 255 260 265 270 275 281 285 288 291 292 291 292 292 293 295 298 302 306 308 310 309 309 308 309 311 313 315 314 313 311 309 307 305 304 303 301
229 220 218 226 225 213 213 223 232 238 246 255 263 261 258 256 247 241 242 241 240 240 238 236 235 235 236 238 239 241 240 237 237 242 239 228 221 223 230 235 237 240 241 238 237 237 238 240 243 246 249 251 252 253 253 252 253 253 254 254 255 258 262 267 272 277 282 285 287 288 288 288 289 290 291 295 299 303 307 311 313 314 314 313 313 313 313 313 312 311 310 309 308 306 305 303 301
231 226 215 214 230 234 228 226 227 234 239 238 245 254 260 259 246 238 240 241 240 242 244 244 241 239 235 235 238 241 245 247 247 251 252 248 241 231 225 230 238 242 243 243 242 244 244 242 244 246 246 248 249 250 252 253 254 254 254 253 255 258 262 267 273 278 281 283 283 283 284 286 287 288 292 296 301 305 310 313 317 318 317 316 314 313 313 313 313 313 312 311 309 306 304 302 300
227 228 221 211 217 231 241 241 234 234 235 232 235 249 260 262 250 238 238 240 242 245 246 244 242 240 237 236 240 245 248 249 250 254 256 259 261 257 244 232 236 242 245 246 246 246 246 242 241 243 244 246 248 250 252 253 253 253 253 254 255 258 262 267 272 277 280 280 279 280 282 284 285 288 294 301 305 309 313 316 317 318 317 316 315 315 316 317 316 317 316 315 312 308 305 303 301
223 223 222 218 217 218 227 237 238 237 235 230 232 241 253 259 257 246 238 237 242 247 248 247 245 241 239 241 242 246 248 248 247 250 255 261 267 271 266 251 244 247 247 247 248 247 246 245 242 240 242 244 246 250 252 252 252 252 253 255 257 259 262 267 272 275 277 278 277 278 279 280 284 291 298 303 308 310 314 317 318 319 319 319 318 319 319 319 319 319 318 317 315 312 308 305 303
221 219 217 217 218 217 219 224 230 239 242 236 234 237 245 253 257 256 253 249 243 244 247 247 245 243 243 244 243 243 246 248 247 247 251 259 264 265 262 257 253 253 253 252 252 252 250 250 248 245 242 242 243 246 249 250 251 252 253 255 257 259 261 265 271 273 275 276 276 276 276 278 284 293 299 304 308 311 316 319 320 321 320 319 318 317 317 317 319 320 320 318 316 314 312 309 307
224 219 218 217 216 217 220 221 223 235 243 241 235 235 239 248 254 255 263 267 252 240 242 245 247 248 246 242 237 240 244 245 243 241 245 251 257 258 250 243 247 255 258 258 258 258 257 255 253 250 245 243 242 243 245 247 249 251 253 254 256 257 260 265 270 273 275 276 275 273 274 278 286 295 300 305 311 315 318 321 321 322 321 318 315 314 315 317 319 322 322 321 320 318 316 313 310
229 223 222 221 220 220 220 221 224 231 237 239 236 234 233 236 245 253 262 265 254 243 241 242 245 243 240 238 234 236 245 247 241 235 238 244 252 257 248 232 230 246 258 264 264 262 259 256 253 250 247 244 242 242 243 245 247 250 252 253 255 256 260 266 270 273 276 276 274 271 273 280 289 297 303 309 314 318 320 322 323 323 321 318 317 318 320 321 323 324 324 323 322 321 320 317 311
231 227 225 223 222 225 223 220 228 237 240 238 234 238 239 233 229 233 241 244 246 252 244 230 235 237 236 238 235 233 239 243 242 236 232 236 242 249 248 235 228 236 254 266 266 264 259 255 253 251 250 247 244 244 245 246 247 249 252 252 253 256 260 265 270 273 276 276 273 271 274 282 290 299 305 310 314 319 322 323 322 322 321 318 318 319 321 322 323 324 324 322 321 320 322 321 315
227 228 230 227 226 230 226 218 225 235 239 239 233 235 243 243 236 228 226 229 235 245 239 228 236 233 222 231 237 235 232 231 237 233 225 224 228 235 240 240 236 235 252 266 266 267 264 261 258 254 252 249 247 246 245 247 247 247 249 249 251 255 260 265 269 273 275 274 272 272 276 283 292 299 304 309 314 318 320 321 321 321 319 315 315 317 318 320 321 321 321 321 319 317 319 323 321
218 226 234 232 230 233 227 220 227 229 227 233 234 233 234 238 247 245 239 239 236 230 222 224 238 232 212 224 239 245 240 230 229 226 222 223 224 227 232 236 235 234 248 264 273 274 271 268 263 256 252 248 246 245 245 246 247 247 247 248 249 253 258 264 269 271 272 271 270 273 278 286 294 297 302 309 314 316 317 320 321 320 317 314 315 317 318 318 318 318 318 318 317 314 317 323 324
223 225 232 232 230 230 224 220 228 228 225 230 234 236 235 230 236 246 251 254 246 233 221 219 229 240 240 230 238 254 251 235 234 230 229 235 232 227 227 225 221 227 245 259 270 277 277 273 269 262 256 251 248 249 249 249 249 248 248 248 249 252 258 264 267 267 268 269 270 275 283 289 294 297 303 310 313 316 318 320 321 320 318 317 318 319 319 318 316 314 313 314 313 311 314 320 322
229 220 216 224 231 232 225 221 227 227 224 232 236 235 235 230 226 232 243 253 249 244 247 240 226 233 248 239 237 255 253 244 258 251 235 239 239 228 219 211 211 221 237 247 256 272 285 281 277 273 262 257 255 254 253 253 254 253 254 254 254 255 259 263 264 264 266 269 272 278 285 289 294 300 306 311 313 317 320 320 321 321 319 318 318 319 318 317 315 313 312 312 308 305 309 316 318
230 221 214 215 227 236 231 224 228 231 226 227 233 235 234 231 227 222 226 243 249 248 256 258 235 219 230 227 225 247 254 255 269 268 246 236 236 233 223 210 207 216 229 241 250 264 285 291 290 284 272 264 260 257 256 256 258 259 260 259 258 258 260 261 261 262 265 270 276 281 285 290 297 304 309 311 313 318 321 321 322 321 319 318 317 317 317 316 314 313 313 312 305 297 302 310 312
235 231 225 217 215 225 230 224 226 232 233 229 228 234 236 235 234 224 214 230 248 251 254 257 250 232 226 216 209 230 247 253 259 266 256 238 233 239 236 222 212 211 224 244 255 259 273 290 296 292 283 274 265 259 257 255 257 261 261 259 260 260 260 260 260 263 268 274 279 283 287 293 298 304 309 312 315 319 322 322 321 320 319 316 315 315 315 314 313 312 313 314 305 293 296 304 308